Regional Weather Roundup
Issued by NWS

Home | Current Version | Previous Version | Text Only | Print | Product List | Glossary Off
Versions: 1 2 3 4 5 6 7 8 9 10 11 12 13 14 15 16 17 18 19 20 21 22 23 24 25 26 27

000
ASUS45 KSLC 250810
RWRUT

UTAH REGIONAL WEATHER ROUNDUP
NATIONAL WEATHER SERVICE SALT LAKE CITY UT
200 AM MDT SUN JUN 25 2017

UTZ001>011-023>025-250900-

NORTHERN UTAH

CITY           SKY/WX    TMP DP  RH WIND       PRES   REMARKS
BRIGHAM CITY   CLEAR     66  43  43 CALM      30.17F
HILL AFB       CLEAR     65  39  39 E12       30.19S
LOGAN          CLEAR     59  46  62 W3        30.21R
OGDEN          CLEAR     65  40  39 S7        30.17R
SALT LAKE CITY CLEAR     68  37  32 SW5       30.15F
TOOELE VALLEY  CLEAR     57  28  33 S9        30.18R
WENDOVER         N/A     76  31  19 VRB6      30.17S
HEBER CITY     CLEAR     48  37  66 CALM      30.27S
WEST JORDAN    CLEAR     65  42  43 W6        30.19F

$$

UTZ011>015-024>027-250900-

CENTRAL/NORTHEAST UTAH

CITY           SKY/WX    TMP DP  RH WIND       PRES   REMARKS
PROVO AIRPORT  CLEAR     61  41  47 SE5       30.18S
MOAB/CANYONLAN CLEAR     75  21  13 CALM      30.09R
DELTA          CLEAR     64  25  22 NE7       30.17R
PRICE          CLEAR     66  28  24 W5        30.23S
RICHFIELD      CLEAR     55  39  54 CALM      30.24R
VERNAL         CLEAR     62  29  28 N8        30.21S

$$

UTZ013>016-019>022-027-250900-

SOUTHERN UTAH

CITY           SKY/WX    TMP DP  RH WIND       PRES   REMARKS
BRYCE CANYON   PTCLDY    46  22  38 W7        30.37S
CEDAR CITY     CLEAR     62  19  19 N3        30.20S
MILFORD        CLEAR     63  15  15 VRB5      30.17S
ST GEORGE      SUNNY     89  23   9 NE13      29.92R
HANKSVILLE     CLEAR     66  19  16 CALM      30.13S
KANAB          CLEAR     75  23  14 N13       30.14S
BLANDING       CLEAR     71  19  14 N12       30.25S

$$

REGIONAL REPORTS     COLORADO/ARIZONA

CITY           SKY/WX    TMP DP  RH WIND       PRES   REMARKS
CRAIG, CO      CLEAR     45  35  68 NW3       30.30F
GRAND JUNCTION CLEAR     71  28  20 SE7       30.14S
RIFLE, CO      CLEAR     57  28  33 SE6       30.25R
MONTROSE, CO   CLOUDY    60  31  33 SE12      30.25R
CORTEZ, CO     CLOUDY    51  25  36 E6        30.21S
COLORADO CITY    N/A     81  23  12 E9        30.11S
PAGE, AZ       CLEAR     80  32  17 CALM      30.04R
GRAND CANYON   MOCLDY    59  30  33 NE3       30.25F
KINGMAN, AZ    PTCLDY    81  27  14 SE9       29.93S
FLAGSTAFF, AZ  PTCLDY    63  30  28 SW3       30.26F

$$

REGIONAL REPORTS    NEVADA/IDAHO/WYOMING

CITY           SKY/WX    TMP DP  RH WIND       PRES   REMARKS
LAS VEGAS, NV  PTCLDY    98  29   8 S8        29.79F HX  92
ELY, NY        CLEAR     63  19  18 NE3       30.27S
ELKO, NV       CLEAR     64  30  27 E6        30.21S
POCATELLO, ID  CLEAR     56  43  61 E5        30.22S
BURLEY, ID     CLEAR     54  43  66 SW5       30.17S
FORT BRIDGER,    N/A     54  34  47 W7        30.40S
EVANSTON, WY   CLOUDY    56  36  47 SE6       30.38S
ROCK SPRINGS,  CLEAR     56  29  35 NE17      30.36
KEMMERER, WY     N/A     55  32  41 N13G24    30.40S

$$




USA.gov is the U.S. government's official web portal to all federal, state and local government web resources and services.